Simultaneous Nadir Overpasses (SNOs) Predictions

Prediction of SNOs between METOP-A and NOAA-19 Satellite Orbit:

Table of predicted SNOs for the next 14.0 days since TLE Epoch: 12/27/2019
Index Date (METOP-A) Time (METOP-A) Lat,Lon (METOP-A) SZA (METOP-A ) Date (NOAA-19) Time (NOAA-19) Lat,Lon (NOAA-19) SZA (NOAA-19 ) Distance(km) Time Diff (sec)
1 12/31/2019 02:07:10 80.20, 161.41 103.49 12/31/2019 02:06:14 80.20, 161.52 103.49 2.19 56
2 12/31/2019 02:57:51 -80.21, -31.14 76.50 12/31/2019 02:57:09 -80.20, -31.24 76.52 2.03 42
3 12/31/2019 03:48:32 80.19, 135.95 103.47 12/31/2019 03:48:15 80.21, 135.93 103.49 2.20 17
4 12/31/2019 04:39:13 -80.20, -56.61 76.52 12/31/2019 04:39:09 -80.19, -56.52 76.53 2.04 4
5 12/31/2019 05:29:53 80.21, 110.79 103.49 12/31/2019 05:30:15 80.19, 110.66 103.47 2.86 22
6 12/31/2019 06:20:35 -80.19, -82.07 76.54 12/31/2019 06:21:10 -80.20, -82.12 76.53 1.23 35
7 12/31/2019 07:11:15 80.19, 85.32 103.47 12/31/2019 07:12:15 80.18, 85.38 103.46 2.09 60




NCC Satellite Simultaneous Nadir Overpasses (SNOs) Prediction Service
